Location: Bergnerzell
(49.1816°N, 10.2565°E)
Time: 16:03:07
(UTC+00:00)

Meteor 1-24 Rocket - Pass Details

Date: 14 August 2024
Orbit: 790 x 926 km, 81.3° (Epoch: 08 September)

Event Time Altitude Azimuth Distance (km) Brightness Sun altitude
Rises 02:24:45 0° 344° (NNW) 3,518 7.3 -15.1°
Reaches altitude 10° 02:27:14 10° 339° (NNW) 2,591 6.5 -14.8°
Maximum altitude 02:32:57 51° 266° (W) 1,141 4.1 -14.1°
Enters shadow 02:38:26 11° 193° (SSW) 2,515 5.7 -13.4°
